| time (UTC) | temp F | wind direction | speed MPH | gust MPH | rain 1hr in | rain 24hr in | rain mn in | humidity % | barometer mb |
| 20260507070044 | 76 | 304 | 1.0 | 4.0 | 0.00 | 0.00 | 0.00 | 100 | 1010.8 |
| 20260507064535 | 77 | 276 | 0.0 | 0.0 | 0.00 | 0.00 | 0.00 | 100 | 1010.9 |
| 20260507063034 | 77 | 305 | 0.0 | 3.0 | 0.00 | 0.00 | 0.00 | 100 | 1011.0 |
| 20260507061529 | 77 | 311 | 2.0 | 4.0 | 0.00 | 0.00 | 0.00 | 100 | 1011.2 |
| 20260507060032 | 77 | 314 | 2.0 | 3.0 | 0.00 | 0.00 | 0.00 | 100 | 1011.3 |
| 20260507054525 | 77 | 319 | 1.0 | 3.0 | 0.00 | 0.00 | 0.00 | 99 | 1011.4 |
| 20260507053025 | 77 | 278 | 0.0 | 0.0 | 0.00 | 0.00 | 0.00 | 99 | 1011.3 |
| 20260507051527 | 78 | 293 | 2.0 | 5.0 | 0.00 | 0.00 | 0.00 | 99 | 1011.4 |
| 20260507050029 | 77 | 297 | 3.0 | 4.0 | 0.00 | 0.00 | 0.00 | 99 | 1011.6 |
| 20260507044522 | 78 | 294 | 2.0 | 4.0 | 0.00 | 0.00 | 0.00 | 99 | 1011.7 |
| 20260507043021 | 78 | 293 | 3.0 | 4.0 | 0.00 | 0.00 | 0.00 | 99 | 1011.6 |
| 20260507041521 | 78 | 314 | 0.0 | 3.0 | 0.00 | 0.00 | 0.00 | 98 | 1011.5 |
| 20260507040020 | 78 | 301 | 2.0 | 4.0 | 0.00 | 0.00 | 0.00 | 98 | 1011.5 |
| 20260507034521 | 78 | 293 | 0.0 | 3.0 | 0.00 | 0.00 | 0.00 | 98 | 1011.3 |
| 20260507033026 | 78 | 306 | 0.0 | 0.0 | 0.00 | 0.00 | 0.00 | 98 | 1011.2 |
| 20260507031524 | 78 | 305 | 0.0 | 4.0 | 0.00 | 0.00 | 0.00 | 98 | 1011.1 |
| 20260507030018 | 78 | 299 | 0.0 | 3.0 | 0.00 | 0.00 | 0.00 | 98 | 1010.9 |
| 20260507024515 | 78 | 315 | 2.0 | 4.0 | 0.00 | 0.02 | 0.00 | 98 | 1010.7 |
| 20260507023014 | 78 | 311 | 2.0 | 4.0 | 0.00 | 0.02 | 0.00 | 98 | 1010.6 |
| 20260507021514 | 78 | 292 | 1.0 | 4.0 | 0.00 | 0.02 | 0.00 | 98 | 1010.6 |
| 20260507020015 | 79 | 293 | 1.0 | 3.0 | 0.00 | 0.02 | 0.00 | 97 | 1010.5 |
| 20260507014512 | 79 | 309 | 0.0 | 2.0 | 0.00 | 0.02 | 0.00 | 97 | 1010.4 |
| 20260507013011 | 80 | 267 | 2.0 | 4.0 | 0.00 | 0.02 | 0.00 | 96 | 1010.3 |
| 20260507011525 | 80 | 235 | 1.0 | 6.0 | 0.00 | 0.02 | 0.00 | 96 | 1010.1 |
| 20260507010011 | 80 | 230 | 4.0 | 7.0 | 0.00 | 0.02 | 0.00 | 95 | 1009.9 |
| 20260507004509 | 80 | 204 | 2.0 | 6.0 | 0.00 | 0.02 | 0.00 | 95 | 1009.8 |
| 20260507003009 | 80 | 246 | 2.0 | 6.0 | 0.00 | 0.02 | 0.00 | 95 | 1009.6 |
| 20260507001513 | 80 | 258 | 3.0 | 7.0 | 0.00 | 0.02 | 0.00 | 95 | 1009.3 |
| 20260507000008 | 81 | 260 | 3.0 | 6.0 | 0.00 | 0.02 | 0.00 | 94 | 1009.2 |
| 20260506234507 | 81 | 247 | 3.0 | 8.0 | 0.00 | 0.02 | 0.00 | 94 | 1009.0 |
| 20260506233007 | 81 | 245 | 3.0 | 7.0 | 0.00 | 0.02 | 0.00 | 94 | 1008.8 |
| 20260506231505 | 82 | 238 | 4.0 | 9.0 | 0.00 | 0.02 | 0.00 | 93 | 1008.8 |
| 20260506230007 | 82 | 223 | 5.0 | 10.0 | 0.00 | 0.02 | 0.00 | 92 | 1008.8 |
| 20260506224504 | 82 | 244 | 4.0 | 7.0 | 0.00 | 0.02 | 0.00 | 91 | 1008.5 |
| 20260506223003 | 82 | 240 | 5.0 | 10.0 | 0.00 | 0.02 | 0.00 | 92 | 1008.7 |
| 20260506221601 | 83 | 240 | 4.0 | 9.0 | 0.00 | 0.02 | 0.00 | 90 | 1008.6 |
| 20260506220001 | 82 | 233 | 3.0 | 11.0 | 0.00 | 0.02 | 0.00 | 91 | 1008.8 |
| 20260506214600 | 82 | 295 | 3.0 | 10.0 | 0.00 | 0.02 | 0.00 | 90 | 1008.7 |
| 20260506213104 | 82 | 226 | 6.0 | 10.0 | 0.00 | 0.02 | 0.00 | 90 | 1008.6 |
| 20260506211558 | 82 | 245 | 7.0 | 12.0 | 0.00 | 0.02 | 0.00 | 90 | 1008.7 |
| 20260506210058 | 83 | 231 | 7.0 | 12.0 | 0.00 | 0.02 | 0.00 | 91 | 1008.8 |
| 20260506204553 | 83 | 208 | 7.0 | 15.0 | 0.00 | 0.02 | 0.00 | 90 | 1009.0 |
| 20260506203052 | 83 | 233 | 9.0 | 13.0 | 0.00 | 0.02 | 0.00 | 91 | 1009.1 |
| 20260506201552 | 83 | 256 | 8.0 | 13.0 | 0.00 | 0.02 | 0.00 | 91 | 1009.3 |
| 20260506200047 | 83 | 220 | 5.0 | 13.0 | 0.00 | 0.02 | 0.00 | 91 | 1009.6 |
| 20260506194547 | 83 | 187 | 8.0 | 13.0 | 0.00 | 0.02 | 0.00 | 90 | 1009.7 |
| 20260506193046 | 83 | 221 | 8.0 | 15.0 | 0.00 | 0.02 | 0.00 | 90 | 1010.0 |
| 20260506191545 | 83 | 259 | 8.0 | 13.0 | 0.00 | 0.02 | 0.00 | 91 | 1010.2 |
| 20260506190046 | 84 | 226 | 8.0 | 12.0 | 0.00 | 0.02 | 0.00 | 89 | 1010.3 |
| 20260506184549 | 83 | 217 | 5.0 | 13.0 | 0.00 | 0.02 | 0.00 | 91 | 1010.4 |
| 20260506183041 | 83 | 188 | 7.0 | 12.0 | 0.00 | 0.02 | 0.00 | 90 | 1010.7 |
| 20260506181540 | 83 | 238 | 7.0 | 12.0 | 0.00 | 0.02 | 0.00 | 90 | 1010.8 |
| 20260506180041 | 83 | 194 | 7.0 | 11.0 | 0.00 | 0.02 | 0.00 | 90 | 1011.1 |
| 20260506174538 | 83 | 219 | 4.0 | 10.0 | 0.00 | 0.02 | 0.00 | 90 | 1011.3 |
| 20260506173057 | 83 | 205 | 6.0 | 11.0 | 0.00 | 0.02 | 0.00 | 90 | 1011.4 |
| 20260506171536 | 83 | 177 | 7.0 | 11.0 | 0.00 | 0.02 | 0.00 | 90 | 1011.5 |
| 20260506170040 | 83 | 198 | 6.0 | 12.0 | 0.00 | 0.02 | 0.00 | 90 | 1011.8 |
| 20260506164535 | 83 | 191 | 6.0 | 11.0 | 0.00 | 0.02 | 0.00 | 90 | 1011.9 |
| 20260506163037 | 82 | 220 | 4.0 | 11.0 | 0.00 | 0.02 | 0.00 | 90 | 1011.9 |
| 20260506161532 | 82 | 219 | 6.0 | 9.0 | 0.00 | 0.02 | 0.00 | 90 | 1011.9 |
| 20260506160032 | 82 | 186 | 4.0 | 11.0 | 0.00 | 0.02 | 0.00 | 92 | 1011.8 |
| 20260506154529 | 82 | 263 | 4.0 | 10.0 | 0.00 | 0.02 | 0.00 | 92 | 1011.8 |
| 20260506153028 | 82 | 200 | 4.0 | 10.0 | 0.00 | 0.02 | 0.00 | 92 | 1011.8 |
| 20260506151528 | 82 | 222 | 6.0 | 9.0 | 0.00 | 0.02 | 0.00 | 92 | 1011.5 |
| 20260506150025 | 82 | 182 | 6.0 | 10.0 | 0.00 | 0.02 | 0.00 | 93 | 1011.7 |
| 20260506144527 | 82 | 164 | 5.0 | 10.0 | 0.00 | 0.02 | 0.00 | 94 | 1011.7 |
| 20260506143025 | 81 | 223 | 4.0 | 10.0 | 0.00 | 0.02 | 0.00 | 95 | 1011.5 |
| 20260506141520 | 80 | 212 | 5.0 | 9.0 | 0.00 | 0.02 | 0.00 | 96 | 1011.5 |
| 20260506140017 | 80 | 250 | 0.0 | 5.0 | 0.00 | 0.02 | 0.00 | 97 | 1011.6 |
| 20260506134514 | 80 | 219 | 3.0 | 6.0 | 0.00 | 0.02 | 0.00 | 97 | 1011.5 |
| 20260506133013 | 79 | 281 | 1.0 | 5.0 | 0.00 | 0.02 | 0.00 | 98 | 1011.2 |
| 20260506131509 | 78 | 282 | 1.0 | 3.0 | 0.00 | 0.02 | 0.00 | 99 | 1011.1 |
| 20260506130008 | 78 | 300 | 0.0 | 3.0 | 0.00 | 0.02 | 0.00 | 100 | 1010.9 |
| 20260506124505 | 77 | 304 | 2.0 | 4.0 | 0.00 | 0.02 | 0.00 | 100 | 1010.7 |
| 20260506123004 | 76 | 294 | 2.0 | 4.0 | 0.00 | 0.02 | 0.00 | 100 | 1010.6 |
| 20260506121503 | 76 | 307 | 2.0 | 4.0 | 0.00 | 0.02 | 0.00 | 100 | 1010.5 |
| 20260506120003 | 76 | 302 | 3.0 | 5.0 | 0.00 | 0.02 | 0.00 | 100 | 1010.4 |
| 20260506114501 | 76 | 300 | 3.0 | 5.0 | 0.00 | 0.02 | 0.00 | 100 | 1010.3 |
| 20260506113101 | 76 | 319 | 3.0 | 5.0 | 0.00 | 0.02 | 0.00 | 100 | 1010.3 |
| 20260506111559 | 76 | 301 | 3.0 | 5.0 | 0.00 | 0.02 | 0.00 | 100 | 1010.3 |
| 20260506110103 | 76 | 306 | 3.0 | 5.0 | 0.00 | 0.02 | 0.00 | 100 | 1010.2 |
| 20260506104559 | 76 | 304 | 3.0 | 5.0 | 0.00 | 0.02 | 0.00 | 100 | 1010.2 |
| 20260506103059 | 76 | 308 | 2.0 | 4.0 | 0.00 | 0.02 | 0.00 | 100 | 1010.0 |
| 20260506101610 | 76 | 308 | 0.0 | 0.0 | 0.00 | 0.02 | 0.00 | 100 | 1010.1 |
| 20260506100114 | 76 | 300 | 0.0 | 0.0 | 0.00 | 0.02 | 0.00 | 100 | 1009.7 |
| 20260506094555 | 76 | 274 | 0.0 | 0.0 | 0.00 | 0.02 | 0.00 | 100 | 1009.6 |
| 20260506093054 | 76 | 308 | 3.0 | 5.0 | 0.00 | 0.02 | 0.00 | 100 | 1009.6 |
| 20260506091553 | 76 | 302 | 3.0 | 5.0 | 0.00 | 0.02 | 0.00 | 100 | 1009.6 |
| 20260506090052 | 76 | 300 | 2.0 | 4.0 | 0.00 | 0.02 | 0.00 | 100 | 1009.6 |
| 20260506084614 | 76 | 309 | 2.0 | 4.0 | 0.00 | 0.02 | 0.00 | 100 | 1009.6 |
| 20260506083049 | 76 | 311 | 2.0 | 4.0 | 0.00 | 0.02 | 0.00 | 100 | 1009.8 |
| 20260506081553 | 76 | 304 | 2.0 | 5.0 | 0.00 | 0.02 | 0.00 | 100 | 1009.9 |
| 20260506073045 | 76 | 311 | 3.0 | 4.0 | 0.00 | 0.02 | 0.00 | 100 | 1010.6 |
| 20260506071537 | 76 | 311 | 2.0 | 4.0 | 0.00 | 0.02 | 0.00 | 100 | 1010.8 |